When you browse on this site, cookies collect data to enhance your experience and personalize the content and advertising you see.
Visit our Privacy Policy to learn more. By continuing to use the site, you agree to this use of cookies and data.
  • In United Kingdom
  • List of Countries
  • For 7 days
  • Water Temperature
  • Weather Map
  • Weather Widgets
  • user-avatar
    Login

    Hourly Weather Vratsa

    Today, 14 October, Monday

    Time Temperature Precipitation Wind Pressure Humidity
    00:00 +16°C° 0 mm 1 mps 714 mmHg 63%
    01:00 +15°C° 0 mm 1 mps 714 mmHg 63%
    02:00 +15°C° 0 mm 1 mps 714 mmHg 64%
    03:00 +14°C° 0 mm 1 mps 713 mmHg 64%
    04:00 +14°C° 0 mm 1 mps 713 mmHg 64%
    05:00 +14°C° 0 mm 1 mps 713 mmHg 65%
    06:00 +14°C° 0 mm 0 mps 713 mmHg 62%
    07:00 +14°C° 0 mm 0 mps 713 mmHg 60%
    08:00 +16°C° 0 mm 1 mps 714 mmHg 56%
    09:00 +19°C° 0 mm 1 mps 714 mmHg 50%
    10:00 +21°C° 0 mm 1 mps 714 mmHg 45%
    11:00 +24°C° 0 mm 1 mps 714 mmHg 39%
    12:00 +24°C° 0 mm 1 mps 714 mmHg 37%
    13:00 +25°C° 0 mm 1 mps 713 mmHg 34%
    14:00 +26°C° 0 mm 2 mps 713 mmHg 32%
    15:00 +25°C° 0 mm 1 mps 713 mmHg 35%
    16:00 +24°C° 0 mm 1 mps 712 mmHg 37%
    17:00 +24°C° 0 mm 1 mps 712 mmHg 40%
    18:00 +22°C° 0 mm 1 mps 712 mmHg 44%
    19:00 +20°C° 0 mm 1 mps 712 mmHg 47%
    20:00 +18°C° 0 mm 1 mps 712 mmHg 51%
    21:00 +18°C° 0 mm 1 mps 712 mmHg 52%
    22:00 +16°C° 0 mm 1 mps 712 mmHg 52%
    23:00 +16°C° 0 mm 1 mps 712 mmHg 53%

    Tomorrow, 15 October, Tuesday

    Time Temperature Precipitation Wind Pressure Humidity
    00:00 +16°C° 0 mm 1 mps 712 mmHg 52%
    01:00 +15°C° 0 mm 1 mps 711 mmHg 51%
    02:00 +15°C° 0 mm 1 mps 711 mmHg 50%
    03:00 +14°C° 0 mm 1 mps 711 mmHg 51%
    04:00 +14°C° 0 mm 1 mps 711 mmHg 52%
    05:00 +14°C° 0 mm 1 mps 710 mmHg 52%
    06:00 +14°C° 0 mm 1 mps 711 mmHg 51%
    07:00 +15°C° 0 mm 1 mps 711 mmHg 51%
    08:00 +16°C° 0 mm 1 mps 711 mmHg 50%
    09:00 +19°C° 0 mm 1 mps 711 mmHg 44%
    10:00 +21°C° 0 mm 1 mps 711 mmHg 39%
    11:00 +24°C° 0 mm 1 mps 711 mmHg 33%
    12:00 +25°C° 0 mm 1 mps 711 mmHg 31%
    13:00 +26°C° 0 mm 1 mps 711 mmHg 28%
    14:00 +27°C° 0 mm 2 mps 710 mmHg 26%
    15:00 +26°C° 0 mm 2 mps 710 mmHg 28%
    16:00 +25°C° 0 mm 1 mps 709 mmHg 31%
    17:00 +24°C° 0 mm 1 mps 709 mmHg 33%
    18:00 +22°C° 0 mm 1 mps 709 mmHg 36%
    19:00 +20°C° 0 mm 1 mps 709 mmHg 39%
    20:00 +18°C° 0 mm 1 mps 709 mmHg 42%
    21:00 +18°C° 0 mm 1 mps 709 mmHg 43%
    22:00 +16°C° 0 mm 1 mps 709 mmHg 44%
    23:00 +16°C° 0 mm 1 mps 709 mmHg 44%

    Day after tomorrow, 16 October, Wednesday

    Time Temperature Precipitation Wind Pressure Humidity
    00:00 +15°C° 0 mm 1 mps 709 mmHg 45%
    01:00 +15°C° 0 mm 1 mps 709 mmHg 46%
    02:00 +14°C° 0 mm 1 mps 709 mmHg 47%
    03:00 +14°C° 0 mm 1 mps 709 mmHg 48%
    04:00 +13°C° 0 mm 1 mps 709 mmHg 50%
    05:00 +13°C° 0 mm 1 mps 709 mmHg 52%
    06:00 +13°C° 0 mm 1 mps 709 mmHg 51%
    07:00 +13°C° 0 mm 0 mps 709 mmHg 50%
    08:00 +14°C° 0 mm 0 mps 710 mmHg 49%
    09:00 +18°C° 0 mm 1 mps 710 mmHg 44%
    10:00 +20°C° 0 mm 1 mps 710 mmHg 39%
    11:00 +22°C° 0 mm 1 mps 711 mmHg 33%
    12:00 +23°C° 0 mm 2 mps 710 mmHg 32%
    13:00 +24°C° 0 mm 2 mps 710 mmHg 31%
    14:00 +25°C° 0 mm 2 mps 710 mmHg 29%
    15:00 +24°C° 0 mm 1 mps 710 mmHg 32%
    16:00 +23°C° 0 mm 1 mps 709 mmHg 35%
    17:00 +22°C° 0 mm 1 mps 709 mmHg 38%
    18:00 +20°C° 0 mm 1 mps 709 mmHg 41%
    19:00 +19°C° 0 mm 1 mps 709 mmHg 44%
    20:00 +16°C° 0 mm 1 mps 710 mmHg 47%
    21:00 +16°C° 0 mm 1 mps 710 mmHg 48%
    22:00 +15°C° 0 mm 1 mps 710 mmHg 49%
    23:00 +15°C° 0 mm 1 mps 710 mmHg 49%

    17 October, Thursday

    Time Temperature Precipitation Wind Pressure Humidity
    00:00 +14°C° 0 mm 0 mps 710 mmHg 50%
    01:00 +13°C° 0 mm 0 mps 710 mmHg 51%
    02:00 +13°C° 0 mm 0 mps 710 mmHg 51%
    03:00 +13°C° 0 mm 0 mps 710 mmHg 53%
    04:00 +12°C° 0 mm 0 mps 710 mmHg 54%
    05:00 +12°C° 0 mm 0 mps 710 mmHg 55%
    06:00 +12°C° 0 mm 0 mps 710 mmHg 54%
    07:00 +13°C° 0 mm 0 mps 710 mmHg 53%
    08:00 +14°C° 0 mm 0 mps 710 mmHg 52%
    09:00 +18°C° 0 mm 1 mps 711 mmHg 47%
    10:00 +20°C° 0 mm 1 mps 711 mmHg 42%
    11:00 +22°C° 0 mm 1 mps 711 mmHg 36%
    12:00 +23°C° 0 mm 1 mps 711 mmHg 34%
    13:00 +24°C° 0 mm 1 mps 711 mmHg 32%
    14:00 +24°C° 0 mm 2 mps 710 mmHg 30%
    15:00 +24°C° 0 mm 1 mps 710 mmHg 33%
    16:00 +23°C° 0 mm 1 mps 710 mmHg 36%
    17:00 +22°C° 0 mm 1 mps 710 mmHg 38%
    18:00 +20°C° 0 mm 1 mps 710 mmHg 42%
    19:00 +19°C° 0 mm 1 mps 710 mmHg 45%
    20:00 +16°C° 0 mm 1 mps 710 mmHg 49%
    21:00 +16°C° 0 mm 1 mps 710 mmHg 50%
    22:00 +15°C° 0 mm 1 mps 710 mmHg 50%
    23:00 +15°C° 0 mm 1 mps 711 mmHg 51%

    18 October, Friday

    Time Temperature Precipitation Wind Pressure Humidity
    00:00 +15°C° 0 mm 1 mps 711 mmHg 52%
    01:00 +13°C° 0 mm 0 mps 710 mmHg 53%
    02:00 +13°C° 0 mm 0 mps 710 mmHg 53%
    03:00 +13°C° 0 mm 0 mps 710 mmHg 54%
    04:00 +12°C° 0 mm 0 mps 710 mmHg 55%
    05:00 +12°C° 0 mm 0 mps 711 mmHg 56%
    06:00 +13°C° 0 mm 0 mps 711 mmHg 55%
    07:00 +13°C° 0 mm 0 mps 711 mmHg 54%
    08:00 +14°C° 0 mm 0 mps 711 mmHg 53%
    09:00 +18°C° 0 mm 1 mps 711 mmHg 47%
    10:00 +20°C° 0 mm 1 mps 712 mmHg 42%
    11:00 +22°C° 0 mm 1 mps 712 mmHg 37%
    12:00 +23°C° 0 mm 1 mps 712 mmHg 35%
    13:00 +23°C° 0 mm 2 mps 711 mmHg 33%
    14:00 +24°C° 0 mm 2 mps 711 mmHg 31%
    15:00 +23°C° 0 mm 2 mps 711 mmHg 33%
    16:00 +23°C° 0 mm 2 mps 710 mmHg 35%
    17:00 +22°C° 0 mm 1 mps 710 mmHg 37%
    18:00 +20°C° 0 mm 1 mps 710 mmHg 41%
    19:00 +19°C° 0 mm 1 mps 710 mmHg 44%
    20:00 +16°C° 0 mm 1 mps 710 mmHg 47%
    21:00 +16°C° 0 mm 1 mps 710 mmHg 49%
    22:00 +15°C° 0 mm 1 mps 710 mmHg 50%
    23:00 +15°C° 0 mm 1 mps 710 mmHg 51%

    19 October, Saturday

    Time Temperature Precipitation Wind Pressure Humidity
    00:00 +14°C° 0 mm 1 mps 710 mmHg 52%
    01:00 +14°C° 0 mm 1 mps 710 mmHg 53%
    02:00 +14°C° 0 mm 1 mps 710 mmHg 55%
    03:00 +13°C° 0 mm 1 mps 710 mmHg 56%
    04:00 +13°C° 0 mm 1 mps 710 mmHg 57%
    05:00 +13°C° 0 mm 1 mps 710 mmHg 58%
    06:00 +12°C° 0 mm 0 mps 710 mmHg 56%
    07:00 +13°C° 0 mm 0 mps 710 mmHg 55%
    08:00 +13°C° 0 mm 0 mps 710 mmHg 53%
    09:00 +16°C° 0 mm 1 mps 710 mmHg 48%
    10:00 +19°C° 0 mm 1 mps 710 mmHg 42%
    11:00 +21°C° 0 mm 1 mps 711 mmHg 37%
    12:00 +22°C° 0 mm 1 mps 710 mmHg 35%
    13:00 +23°C° 0 mm 2 mps 710 mmHg 34%
    14:00 +24°C° 0 mm 2 mps 710 mmHg 32%
    15:00 +23°C° 0 mm 2 mps 710 mmHg 34%
    16:00 +23°C° 0 mm 1 mps 709 mmHg 37%
    17:00 +22°C° 0 mm 1 mps 709 mmHg 39%
    18:00 +20°C° 0 mm 1 mps 709 mmHg 42%
    19:00 +19°C° 0 mm 1 mps 709 mmHg 45%
    20:00 +16°C° 0 mm 1 mps 709 mmHg 48%
    21:00 +16°C° 0 mm 1 mps 709 mmHg 49%
    22:00 +15°C° 0 mm 1 mps 709 mmHg 50%
    23:00 +15°C° 0 mm 1 mps 709 mmHg 51%
    Show more